Total_Precipitation_Accumulation
0.02 0.07 0.21 0.30 0.27 0.24 0.23 0.21 0.20 0.16 0.15 0.19 0.23 0.25 0.26 0.25 0.25 0.24 0.24 0.26 0.28 0.30 0.32 0.32 0.31 0.29 0.27 0.26 0.24 0.22 0.24 0.29 0.30 0.29 0.30 0.34 0.38 0.35 0.33 0.30 0.21 0.25 0.40
0.02 0.07 0.19 0.23 0.22 0.21 0.19 0.16 0.14 0.11 0.12 0.15 0.18 0.18 0.17 0.19 0.21 0.23 0.23 0.24 0.24 0.27 0.31 0.32 0.28 0.24 0.23 0.22 0.20 0.19 0.19 0.20 0.23 0.23 0.20 0.18 0.32 0.38 0.33 0.34 0.30 0.45 0.52
0.01 0.06 0.12 0.17 0.18 0.18 0.16 0.13 0.09 0.09 0.09 0.12 0.14 0.13 0.12 0.14 0.15 0.18 0.20 0.20 0.20 0.20 0.20 0.22 0.22 0.19 0.17 0.16 0.16 0.15 0.16 0.14 0.13 0.16 0.15 0.11 0.27 0.45 0.41 0.38 0.33 0.48 0.52
0.01 0.05 0.07 0.11 0.15 0.16 0.14 0.11 0.09 0.08 0.08 0.11 0.11 0.10 0.10 0.12 0.13 0.14 0.15 0.14 0.14 0.15 0.14 0.14 0.13 0.14 0.12 0.10 0.11 0.11 0.13 0.12 0.09 0.08 0.04 0.05 0.25 0.45 0.46 0.41 0.36 0.42 0.49
0.02 0.04 0.07 0.12 0.13 0.13 0.12 0.09 0.07 0.07 0.08 0.11 0.10 0.09 0.09 0.10 0.10 0.11 0.11 0.10 0.08 0.08 0.09 0.10 0.11 0.12 0.12 0.10 0.09 0.11 0.12 0.10 0.08 0.04 0.01 0.04 0.17 0.36 0.36 0.37 0.35 0.40 0.44
0.01 0.02 0.06 0.11 0.12 0.11 0.10 0.07 0.06 0.06 0.07 0.10 0.08 0.07 0.08 0.09 0.09 0.08 0.07 0.06 0.05 0.06 0.07 0.08 0.09 0.12 0.12 0.12 0.12 0.17 0.19 0.16 0.08 0.02 0.01 0.03 0.08 0.22 0.32 0.39 0.39 0.38 0.35
0.01 0.02 0.05 0.11 0.12 0.10 0.09 0.07 0.06 0.06 0.07 0.07 0.06 0.06 0.06 0.08 0.09 0.08 0.05 0.05 0.06 0.05 0.07 0.07 0.08 0.10 0.13 0.14 0.15 0.20 0.27 0.22 0.10 0.12 0.09 0.06 0.08 0.16 0.24 0.36 0.40 0.39 0.38
0.01 0.03 0.07 0.13 0.13 0.10 0.10 0.07 0.06 0.06 0.07 0.06 0.05 0.05 0.04 0.05 0.06 0.06 0.05 0.06 0.08 0.07 0.08 0.06 0.06 0.07 0.10 0.13 0.16 0.19 0.23 0.16 0.13 0.21 0.23 0.19 0.16 0.20 0.26 0.33 0.38 0.41 0.43
0.01 0.03 0.07 0.11 0.12 0.12 0.11 0.08 0.06 0.06 0.07 0.06 0.05 0.05 0.04 0.03 0.03 0.03 0.03 0.05 0.07 0.06 0.08 0.07 0.06 0.06 0.06 0.08 0.11 0.16 0.19 0.15 0.21 0.35 0.30 0.33 0.25 0.31 0.36 0.34 0.34 0.41 0.44
0.03 0.04 0.07 0.09 0.09 0.10 0.10 0.08 0.07 0.07 0.07 0.06 0.05 0.04 0.03 0.03 0.04 0.03 0.02 0.03 0.04 0.05 0.07 0.08 0.07 0.06 0.06 0.05 0.06 0.09 0.12 0.11 0.15 0.25 0.36 0.31 0.28 0.42 0.49 0.44 0.38 0.39 0.45
0.05 0.05 0.07 0.08 0.08 0.08 0.08 0.07 0.08 0.08 0.07 0.06 0.04 0.03 0.02 0.02 0.02 0.02 0.02 0.02 0.03 0.05 0.05 0.06 0.06 0.07 0.05 0.03 0.02 0.04 0.05 0.03 0.11 0.22 0.29 0.25 0.31 0.46 0.58 0.54 0.52 0.45 0.45
0.04 0.06 0.07 0.07 0.07 0.07 0.07 0.07 0.08 0.07 0.06 0.04 0.02 0.02 0.01 0.01 0.01 0.00 0.01 0.02 0.03 0.05 0.06 0.07 0.06 0.05 0.04 0.02 0.02 0.07 0.02 0.00 0.01 0.05 0.10 0.14 0.21 0.34 0.52 0.60 0.62 0.60 0.56
0.03 0.06 0.07 0.07 0.07 0.07 0.06 0.06 0.06 0.06 0.05 0.03 0.02 0.01 0.01 0.01 0.00 0.00 0.01 0.01 0.02 0.02 0.04 0.08 0.11 0.12 0.14 0.13 0.10 0.12 0.06 0.04 0.03 0.02 0.03 0.07 0.10 0.15 0.26 0.43 0.62 0.69 0.71
0.05 0.07 0.08 0.09 0.09 0.08 0.06 0.05 0.04 0.04 0.03 0.02 0.01 0.01 0.01 0.01 0.00 0.00 0.01 0.01 0.01 0.01 0.01 0.03 0.07 0.14 0.19 0.20 0.16 0.12 0.12 0.13 0.09 0.07 0.04 0.07 0.08 0.09 0.14 0.25 0.43 0.61 0.73
0.05 0.07 0.09 0.10 0.10 0.09 0.07 0.05 0.04 0.03 0.03 0.01 0.01 0.01 0.00 0.01 0.01 0.00 0.00 0.01 0.00 0.00 0.00 0.00 0.01 0.03 0.07 0.12 0.14 0.12 0.12 0.11 0.12 0.14 0.12 0.12 0.10 0.09 0.10 0.16 0.28 0.45 0.62
0.06 0.08 0.09 0.10 0.10 0.10 0.08 0.06 0.04 0.03 0.03 0.02 0.01 0.01 0.01 0.01 0.01 0.01 0.01 0.01 0.01 0.01 0.00 0.00 0.00 0.00 0.00 0.01 0.02 0.05 0.10 0.12 0.15 0.16 0.14 0.13 0.12 0.09 0.09 0.12 0.19 0.32 0.51
0.06 0.08 0.11 0.10 0.11 0.10 0.09 0.07 0.05 0.04 0.03 0.03 0.02 0.01 0.01 0.01 0.01 0.01 0.01 0.01 0.01 0.01 0.00 0.00 0.00 0.00 0.00 0.00 0.00 0.00 0.01 0.03 0.07 0.12 0.12 0.14 0.16 0.13 0.11 0.12 0.15 0.20 0.33
0.08 0.09 0.12 0.13 0.13 0.12 0.11 0.09 0.07 0.05 0.04 0.04 0.03 0.02 0.01 0.01 0.01 0.01 0.01 0.01 0.01 0.00 0.01 0.01 0.01 0.01 0.01 0.00 0.00 0.00 0.00 0.00 0.00 0.02 0.04 0.09 0.14 0.17 0.15 0.15 0.16 0.17 0.22
0.10 0.10 0.12 0.14 0.14 0.14 0.13 0.11 0.08 0.06 0.06 0.05 0.03 0.03 0.02 0.01 0.01 0.01 0.01 0.01 0.01 0.01 0.01 0.01 0.01 0.00 0.01 0.00 0.00 0.00 0.00 0.00 0.00 0.00 0.00 0.02 0.05 0.11 0.15 0.16 0.16 0.16 0.16
0.10 0.14 0.15 0.16 0.16 0.16 0.17 0.14 0.12 0.09 0.06 0.04 0.03 0.03 0.02 0.01 0.01 0.01 0.01 0.01 0.01 0.01 0.01 0.01 0.01 0.00 0.00 0.01 0.00 0.00 0.00 0.00 0.00 0.00 0.00 0.00 0.01 0.05 0.09 0.12 0.14 0.15 0.15
0.09 0.15 0.17 0.18 0.20 0.21 0.20 0.17 0.13 0.09 0.05 0.03 0.02 0.02 0.02 0.01 0.01 0.01 0.01 0.01 0.01 0.01 0.01 0.01 0.00 0.01 0.01 0.01 0.01 0.01 0.00 0.00 0.00 0.00 0.00 0.00 0.00 0.02 0.06 0.10 0.13 0.14 0.14
0.06 0.09 0.15 0.18 0.18 0.21 0.20 0.17 0.12 0.08 0.05 0.03 0.02 0.02 0.02 0.01 0.01 0.01 0.01 0.01 0.02 0.01 0.01 0.00 0.01 0.02 0.02 0.01 0.03 0.06 0.04 0.01 0.00 0.00 0.00 0.00 0.00 0.00 0.02 0.06 0.12 0.13 0.12
0.05 0.07 0.10 0.14 0.18 0.18 0.20 0.20 0.18 0.14 0.10 0.06 0.03 0.02 0.02 0.02 0.01 0.01 0.01 0.02 0.02 0.02 0.01 0.01 0.02 0.04 0.04 0.02 0.03 0.14 0.24 0.16 0.04 0.00 0.00 0.00 0.00 0.00 0.01 0.02 0.06 0.11 0.14
0.03 0.04 0.08 0.12 0.16 0.20 0.20 0.20 0.18 0.15 0.10 0.05 0.03 0.02 0.02 0.02 0.02 0.01 0.01 0.02 0.02 0.01 0.02 0.02 0.03 0.04 0.08 0.08 0.05 0.06 0.14 0.20 0.24 0.12 0.02 0.03 0.04 0.03 0.02 0.02 0.03 0.07 0.13
0.03 0.05 0.07 0.12 0.15 0.21 0.21 0.18 0.18 0.14 0.10 0.06 0.04 0.04 0.03 0.02 0.02 0.02 0.02 0.02 0.02 0.01 0.02 0.03 0.04 0.05 0.08 0.11 0.11 0.10 0.08 0.07 0.13 0.23 0.11 0.04 0.07 0.08 0.07 0.05 0.06 0.09 0.12
0.04 0.06 0.07 0.10 0.13 0.18 0.24 0.21 0.20 0.15 0.11 0.09 0.05 0.04 0.04 0.03 0.02 0.03 0.02 0.02 0.02 0.02 0.03 0.04 0.05 0.06 0.06 0.08 0.11 0.13 0.17 0.19 0.15 0.20 0.20 0.07 0.03 0.04 0.06 0.09 0.09 0.12 0.15